EN

Hourly Weather Barrancas

Today, 17 January, Sunday

Time Temperature Precipitation Wind Pressure Humidity
00:00 +28°C° 0 mm 5 mps 752 mmHg 66%
01:00 +27°C° 0 mm 5 mps 752 mmHg 69%
02:00 +27°C° 0 mm 4 mps 751 mmHg 72%
03:00 +27°C° 0 mm 4 mps 751 mmHg 74%
04:00 +26°C° 0 mm 4 mps 751 mmHg 75%
05:00 +26°C° 0 mm 4 mps 752 mmHg 76%
06:00 +26°C° 0 mm 4 mps 752 mmHg 75%
07:00 +27°C° 0 mm 5 mps 752 mmHg 75%
08:00 +27°C° 0 mm 5 mps 753 mmHg 74%
09:00 +28°C° 0 mm 5 mps 753 mmHg 67%
10:00 +30°C° 0 mm 5 mps 753 mmHg 60%
11:00 +32°C° 0 mm 6 mps 754 mmHg 52%
12:00 +34°C° 0 mm 5 mps 753 mmHg 48%
13:00 +35°C° 0 mm 5 mps 752 mmHg 43%
14:00 +36°C° 0 mm 5 mps 751 mmHg 38%
15:00 +36°C° 0 mm 5 mps 750 mmHg 37%
16:00 +36°C° 0 mm 4 mps 749 mmHg 35%
17:00 +36°C° 0 mm 4 mps 748 mmHg 34%
18:00 +35°C° 0 mm 4 mps 749 mmHg 37%
19:00 +34°C° 0 mm 4 mps 749 mmHg 41%
20:00 +31°C° 0 mm 3 mps 750 mmHg 44%
21:00 +30°C° 0 mm 4 mps 750 mmHg 51%
22:00 +29°C° 0 mm 5 mps 751 mmHg 58%
23:00 +28°C° 0 mm 6 mps 752 mmHg 65%

Tomorrow, 18 January, Monday

Time Temperature Precipitation Wind Pressure Humidity
00:00 +28°C° 0 mm 6 mps 752 mmHg 65%
01:00 +28°C° 0 mm 5 mps 751 mmHg 65%
02:00 +27°C° 0 mm 5 mps 751 mmHg 65%
03:00 +27°C° 0 mm 5 mps 751 mmHg 66%
04:00 +27°C° 0 mm 4 mps 751 mmHg 67%
05:00 +26°C° 0 mm 4 mps 752 mmHg 68%
06:00 +27°C° 0 mm 5 mps 752 mmHg 69%
07:00 +27°C° 0 mm 5 mps 753 mmHg 71%
08:00 +27°C° 0 mm 6 mps 753 mmHg 72%
09:00 +29°C° 0 mm 6 mps 753 mmHg 63%
10:00 +32°C° 0 mm 6 mps 753 mmHg 54%
11:00 +33°C° 0 mm 6 mps 754 mmHg 45%
12:00 +34°C° 0 mm 5 mps 753 mmHg 42%
13:00 +35°C° 0 mm 5 mps 752 mmHg 39%
14:00 +36°C° 0 mm 4 mps 751 mmHg 37%
15:00 +36°C° 0 mm 5 mps 750 mmHg 36%
16:00 +36°C° 0 mm 5 mps 750 mmHg 35%
17:00 +36°C° 0 mm 5 mps 749 mmHg 34%
18:00 +35°C° 0 mm 4 mps 750 mmHg 37%
19:00 +34°C° 0 mm 4 mps 750 mmHg 39%
20:00 +33°C° 0 mm 4 mps 751 mmHg 41%
21:00 +32°C° 0 mm 5 mps 751 mmHg 48%
22:00 +29°C° 0 mm 5 mps 752 mmHg 56%
23:00 +28°C° 0 mm 6 mps 752 mmHg 63%

Day after tomorrow, 19 January, Tuesday

Time Temperature Precipitation Wind Pressure Humidity
00:00 +28°C° 0 mm 6 mps 752 mmHg 65%
01:00 +27°C° 0 mm 5 mps 752 mmHg 68%
02:00 +27°C° 0 mm 4 mps 752 mmHg 70%
03:00 +27°C° 0 mm 5 mps 752 mmHg 71%
04:00 +27°C° 0 mm 5 mps 752 mmHg 72%
05:00 +26°C° 0 mm 5 mps 752 mmHg 74%
06:00 +27°C° 0 mm 5 mps 753 mmHg 73%
07:00 +27°C° 0 mm 6 mps 753 mmHg 73%
08:00 +27°C° 0 mm 6 mps 754 mmHg 72%
09:00 +29°C° 0 mm 6 mps 754 mmHg 65%
10:00 +32°C° 0 mm 6 mps 754 mmHg 58%
11:00 +33°C° 0 mm 7 mps 754 mmHg 51%
12:00 +34°C° 0 mm 6 mps 753 mmHg 48%
13:00 +35°C° 0 mm 6 mps 752 mmHg 44%
14:00 +36°C° 0 mm 5 mps 751 mmHg 41%
15:00 +35°C° 0 mm 5 mps 751 mmHg 42%
16:00 +35°C° 0 mm 5 mps 750 mmHg 42%
17:00 +35°C° 0 mm 5 mps 749 mmHg 43%
18:00 +34°C° 0 mm 5 mps 750 mmHg 44%
19:00 +33°C° 0 mm 5 mps 750 mmHg 45%
20:00 +33°C° 0 mm 4 mps 751 mmHg 46%
21:00 +32°C° 0 mm 5 mps 751 mmHg 52%
22:00 +29°C° 0 mm 5 mps 752 mmHg 59%
23:00 +28°C° 0 mm 5 mps 752 mmHg 66%

20 January, Wednesday

Time Temperature Precipitation Wind Pressure Humidity
00:00 +28°C° 0 mm 5 mps 752 mmHg 67%
01:00 +28°C° 0 mm 5 mps 752 mmHg 67%
02:00 +27°C° 0 mm 5 mps 752 mmHg 68%
03:00 +27°C° 0 mm 5 mps 752 mmHg 69%
04:00 +26°C° 0 mm 5 mps 751 mmHg 70%
05:00 +26°C° 0 mm 5 mps 751 mmHg 72%
06:00 +26°C° 0 mm 5 mps 752 mmHg 70%
07:00 +26°C° 0 mm 5 mps 752 mmHg 69%
08:00 +27°C° 0 mm 5 mps 753 mmHg 68%
09:00 +28°C° 0 mm 5 mps 753 mmHg 63%
10:00 +30°C° 0 mm 5 mps 753 mmHg 58%
11:00 +32°C° 0 mm 5 mps 753 mmHg 52%
12:00 +33°C° 0 mm 5 mps 752 mmHg 50%
13:00 +34°C° 0 mm 5 mps 751 mmHg 48%
14:00 +34°C° 0 mm 4 mps 750 mmHg 46%
15:00 +34°C° 0 mm 4 mps 750 mmHg 46%
16:00 +34°C° 0 mm 4 mps 749 mmHg 45%
17:00 +34°C° 0 mm 4 mps 748 mmHg 45%
18:00 +33°C° 0 mm 4 mps 749 mmHg 47%
19:00 +31°C° 0 mm 3 mps 750 mmHg 49%
20:00 +30°C° 0 mm 2 mps 750 mmHg 51%
21:00 +29°C° 0 mm 4 mps 751 mmHg 55%
22:00 +28°C° 0 mm 5 mps 751 mmHg 59%
23:00 +27°C° 0 mm 6 mps 752 mmHg 63%

21 January, Thursday

Time Temperature Precipitation Wind Pressure Humidity
00:00 +27°C° 0 mm 5 mps 752 mmHg 67%
01:00 +26°C° 0 mm 5 mps 752 mmHg 71%
02:00 +26°C° 0 mm 4 mps 752 mmHg 74%
03:00 +26°C° 0 mm 4 mps 752 mmHg 74%
04:00 +26°C° 0 mm 3 mps 752 mmHg 75%
05:00 +25°C° 0 mm 3 mps 752 mmHg 75%
06:00 +26°C° 0 mm 3 mps 752 mmHg 74%
07:00 +26°C° 0 mm 3 mps 752 mmHg 73%
08:00 +26°C° 0 mm 4 mps 753 mmHg 72%
09:00 +28°C° 0 mm 4 mps 753 mmHg 65%
10:00 +30°C° 0 mm 5 mps 753 mmHg 57%
11:00 +33°C° 0 mm 5 mps 753 mmHg 50%
12:00 +34°C° 0 mm 5 mps 752 mmHg 47%
13:00 +35°C° 0 mm 5 mps 751 mmHg 44%
14:00 +36°C° 0 mm 5 mps 750 mmHg 40%
15:00 +36°C° 0 mm 5 mps 750 mmHg 41%
16:00 +36°C° 0 mm 5 mps 749 mmHg 41%
17:00 +36°C° 0 mm 5 mps 749 mmHg 41%
18:00 +35°C° 0 mm 5 mps 749 mmHg 44%
19:00 +34°C° 0 mm 5 mps 750 mmHg 47%
20:00 +33°C° 0 mm 4 mps 750 mmHg 50%
21:00 +32°C° 0 mm 5 mps 751 mmHg 53%
22:00 +30°C° 0 mm 5 mps 751 mmHg 56%
23:00 +29°C° 0 mm 5 mps 752 mmHg 59%

22 January, Friday

Time Temperature Precipitation Wind Pressure Humidity
00:00 +29°C° 0 mm 5 mps 752 mmHg 61%
01:00 +28°C° 0 mm 4 mps 752 mmHg 63%
02:00 +28°C° 0 mm 4 mps 751 mmHg 65%
03:00 +27°C° 0 mm 4 mps 751 mmHg 67%
04:00 +27°C° 0 mm 3 mps 751 mmHg 68%
05:00 +27°C° 0 mm 3 mps 751 mmHg 70%
06:00 +27°C° 0 mm 4 mps 752 mmHg 69%
07:00 +27°C° 0 mm 5 mps 753 mmHg 68%
08:00 +27°C° 0 mm 5 mps 753 mmHg 67%
09:00 +29°C° 0 mm 5 mps 753 mmHg 63%
10:00 +30°C° 0 mm 6 mps 753 mmHg 58%
11:00 +33°C° 0 mm 6 mps 754 mmHg 53%
12:00 +34°C° 0 mm 6 mps 753 mmHg 49%
13:00 +34°C° 0 mm 5 mps 752 mmHg 46%
14:00 +35°C° 0 mm 5 mps 751 mmHg 42%
15:00 +36°C° 0 mm 5 mps 750 mmHg 41%
16:00 +36°C° 0 mm 5 mps 750 mmHg 40%
17:00 +36°C° 0 mm 5 mps 749 mmHg 38%
18:00 +35°C° 0 mm 4 mps 750 mmHg 41%
19:00 +34°C° 0 mm 4 mps 750 mmHg 43%
20:00 +33°C° 0 mm 4 mps 750 mmHg 46%
21:00 +32°C° 0 mm 4 mps 751 mmHg 49%
22:00 +32°C° 0 mm 5 mps 752 mmHg 51%
23:00 +30°C° 0 mm 6 mps 752 mmHg 54%
Show more

We Need Your Consent

Meteoprog and our Service Providers may store and access personal data such as cookies, device identifiers or other similar technologies on your device and process such data to personalise content and ads, as well as provide social media features and to analyse the traffic.

  • Store and/or access information on your device

    Cookies, device identifiers or other information can be stored or accessed on your device for the purposes indicated above.

  • Personalised ads and content, ad and content measurement, audience insights, and products development

    Ads and content can be personalised based on a profile. More data can be added to better personalise ads and content. Ad and content performance can be measured. Insights about the audience who saw the ads and content can be derived. Such data can be used to develop or improve user’s experience, systems and software.

By clicking ‘I Agree’ you will allow the use of indicated cookies, device identifiers, web beacons or other similar technologies. Your settings can be changed in the browser on your device.

For certain purposes, legitimate interests may be relied on, rather than consent. You can read more about this in our Privacy and Cookie Policy.